EW7639 Weather Reports


Display with metric or nautical units.
time (UTC)temp
F
wind
direction
speed
MPH
gust
MPH
rain 1hr
in
rain 24hr
in
rain mn
in
humidity
%
barometer
mb
20260507010037 56 225 1.0 5.0 0.00 0.00 0.00 100 1007.1
20260507004526 56 212 0.0 6.0 0.00 0.00 0.00 100 1007.4
20260507003002 55 218 0.0 6.0 0.00 0.00 0.00 100 1007.3
20260507001606 55 225 1.0 6.0 0.00 0.00 0.00 100 1007.1
20260507000043 55 222 2.0 5.0 0.00 0.00 0.00 100 1007.1
20260506234537 55 191 0.0 8.0 0.00 0.00 0.00 100 1007.1
20260506233012 55 207 3.0 15.0 0.00 0.00 0.00 100 1007.1
20260506231507 56 211 1.0 10.0 0.00 0.00 0.00 100 1007.1
20260506230057 56 242 2.0 8.0 0.00 0.00 0.00 100 1007.0
20260506224542 56 22 2.0 10.0 0.00 0.00 0.00 100 1007.0
20260506223020 55 218 0.0 10.0 0.00 0.00 0.00 100 1006.8
20260506221516 55 212 1.0 6.0 0.00 0.00 0.00 100 1007.0
20260506220056 56 238 2.0 8.0 0.00 0.00 0.00 100 1006.9
20260506214550 56 193 3.0 8.0 0.00 0.00 0.00 100 1007.0
20260506213032 56 237 2.0 7.0 0.00 0.00 0.00 100 1007.4
20260506211538 56 207 2.0 8.0 0.00 0.00 0.00 100 1007.5
20260506210003 56 250 1.0 8.0 0.00 0.00 0.00 100 1007.6
20260506204559 57 223 4.0 7.0 0.00 0.00 0.00 100 1007.7
20260506203054 57 221 1.0 11.0 0.00 0.00 0.00 100 1007.8
20260506201537 57 223 2.0 8.0 0.00 0.00 0.00 100 1008.0
20260506200032 57 240 4.0 10.0 0.00 0.00 0.00 100 1008.1
20260506194507 57 228 2.0 16.0 0.00 0.00 0.00 100 1008.3
20260506193002 58 204 0.0 7.0 0.00 0.00 0.00 100 1008.4
20260506191541 57 205 2.0 7.0 0.00 0.00 0.00 3 1008.3
20260506190036 58 245 2.0 8.0 0.00 0.00 0.00 21 1008.6
20260506184515 59 235 2.0 12.0 0.00 0.00 0.00 35 1008.8
20260506183010 60 254 4.0 12.0 0.00 0.00 0.00 54 1008.9
20260506181601 61 207 6.0 13.0 0.00 0.00 0.00 62 1009.0
20260506180045 62 231 4.0 13.0 0.00 0.00 0.00 63 1009.3
20260506174523 62 219 6.0 14.0 0.00 0.00 0.00 65 1009.3
20260506173023 63 224 6.0 13.0 0.00 0.00 0.00 65 1009.7
20260506171602 63 250 5.0 13.0 0.00 0.00 0.00 65 1010.0
20260506170106 64 246 6.0 15.0 0.00 0.00 0.00 67 1009.9
20260506164537 65 210 7.0 16.0 0.00 0.00 0.00 67 1010.0
20260506163035 65 253 5.0 15.0 0.00 0.00 0.00 67 1010.1
20260506161528 64 205 5.0 14.0 0.00 0.00 0.00 66 1010.4
20260506160024 64 224 6.0 16.0 0.00 0.00 0.00 68 1010.5
20260506154519 65 229 5.0 12.0 0.00 0.00 0.00 68 1010.7
20260506153021 65 210 9.0 19.0 0.00 0.00 0.00 68 1010.7
20260506151511 66 215 6.0 17.0 0.00 0.00 0.00 68 1010.6
20260506150014 66 257 4.0 13.0 0.00 0.00 0.00 68 1010.8
20260506144552 65 257 6.0 17.0 0.00 0.00 0.00 67 1010.9
20260506143040 64 234 5.0 13.0 0.00 0.00 0.00 65 1010.7
20260506141519 63 210 5.0 14.0 0.00 0.00 0.00 63 1010.8
20260506140019 62 226 4.0 17.0 0.00 0.00 0.00 63 1010.7
20260506134553 63 282 4.0 17.0 0.00 0.00 0.00 62 1010.5
20260506133101 62 235 7.0 15.0 0.00 0.00 0.00 63 1010.9
20260506131527 62 182 5.0 15.0 0.00 0.00 0.00 59 1011.0
20260506130124 61 164 2.0 11.0 0.00 0.00 0.00 52 1011.1
20260506124503 60 233 4.0 12.0 0.00 0.00 0.00 50 1011.1
20260506123058 60 263 2.0 9.0 0.00 0.00 0.00 44 1011.2
20260506121535 59 236 2.0 9.0 0.00 0.00 0.00 33 1011.2
20260506120032 58 132 1.0 7.0 0.00 0.00 0.00 27 1011.3
20260506114514 57 241 2.0 9.0 0.00 0.00 0.00 20 1011.3
20260506113011 56 225 0.0 7.0 0.00 0.00 0.00 14 1011.5
20260506111507 56 200 3.0 7.0 0.00 0.00 0.00 8 1011.5
20260506110001 55 199 0.0 5.0 0.00 0.00 0.00 7 1011.4
20260506104630 55 216 1.0 10.0 0.00 0.00 0.00 7 1011.4
20260506103053 55 205 1.0 5.0 0.00 0.00 0.00 4 1011.2
20260506101550 55 226 0.0 8.0 0.00 0.00 0.00 2 1011.1
20260506100046 55 237 0.0 5.0 0.00 0.00 0.00 2 1011.1
20260506094534 55 187 0.0 4.0 0.00 0.00 0.00 3 1011.2
20260506093024 55 185 2.0 5.0 0.00 0.00 0.00 4 1011.1
20260506091519 55 219 1.0 6.0 0.00 0.00 0.00 8 1011.2
20260506090015 55 173 1.0 6.0 0.00 0.00 0.00 8 1011.2
20260506084511 55 113 1.0 6.0 0.00 0.00 0.00 10 1011.4
20260506083018 55 238 0.0 3.0 0.00 0.00 0.00 14 1011.5
20260506081509 55 208 0.0 4.0 0.00 0.00 0.00 18 1011.6
20260506073040 56 220 1.0 5.0 0.00 0.00 0.00 24 1011.5
20260506071521 57 191 1.0 11.0 0.00 0.00 0.00 26 1011.4
20260506061528 57 224 1.0 8.0 0.00 0.00 0.00 32 1011.4
20260506044510 56 224 1.0 6.0 0.00 0.00 0.00 42 1012.2
20260506043011 56 171 1.0 5.0 0.00 0.00 0.00 47 1012.1
20260506041547 56 188 0.0 5.0 0.00 0.00 0.00 51 1012.1
20260506040048 57 217 0.0 4.0 0.00 0.00 0.00 57 1012.1
20260506034526 57 243 1.0 7.0 0.00 0.00 0.00 58 1012.1
20260506033026 58 173 0.0 6.0 0.00 0.00 0.00 62 1012.1
20260506031517 58 171 0.0 3.0 0.00 0.00 0.00 64 1012.1
20260506030012 58 161 1.0 7.0 0.00 0.00 0.00 64 1012.0
20260506024523 58 220 2.0 7.0 0.00 0.00 0.00 65 1011.8
20260506023004 58 214 1.0 8.0 0.00 0.00 0.00 67 1011.9
20260506020055 59 192 0.0 5.0 0.00 0.00 0.00 68 1011.8
20260506014550 58 148 1.0 6.0 0.00 0.00 0.00 67 1011.7
20260506013047 58 226 0.0 5.0 0.00 0.00 0.00 67 1011.6